Chanute, KS

7:42 PM CDT on September 21, 2019 (GMT -0500)
Chanute Martin Johnson

Weather History for KCNU - August, 2019

Change the Weather History Date:

Friday, August 16, 2019

  Actual Average Record
Temperature  
Mean Temperature 78 °F 79 °F  
Max Temperature 85 °F 90 °F 110 °F (1956)
Min Temperature 70 °F 68 °F 54 °F (1992)
Degree Days  
Heating Degree Days 0 0  
Month to date heating degree days 0 0  
Since 1 June heating degree days 0 6  
Since 1 July heating degree days 0 0  
Cooling Degree Days 13 14  
Month to date cooling degree days 240 237  
Year to date cooling degree days 1217 1111  
Since 1 June cooling degree days 1047 978  
Growing Degree Days 27 (Base 50)    
Moisture  
Dew Point 68 °F    
Average Humidity 75    
Maximum Humidity 85    
Minimum Humidity 65    
Precipitation  
Precipitation 0.01 in 0.13 in 2.79 in (1959)
Month to date precipitation 4.45 1.93  
Year to date precipitation 41.15 28.73  
Sea Level Pressure  
Sea Level Pressure 29.90 in    
Wind  
Wind Speed 11 mph (SE)    
Max Wind Speed 23 mph    
Max Gust Speed 32 mph    
Visibility 10 miles    
Events Rain , Thunderstorm    
T = Trace of Precipitation, MM = Missing Value Source: NWS Daily Summary

Daily Weather History Graph

Daily Weather History Graph

Search for Another Location

Airport or City:

Astronomy

Aug. 16, 2019 Rise Set
Actual Time 6:38 AM CDT 8:13 PM CDT
Civil Twilight 6:10 AM CDT 8:41 PM CDT
Nautical Twilight 5:36 AM CDT 9:14 PM CDT
Astronomical Twilight 5:01 AM CDT 9:50 PM CDT
Moon 9:14 PM CDT (8/16) 7:30 AM CDT (8/16)
Length of Visible Light 14h 30m
Length of Day
13h 35m
Full, 99% of the Moon is Illuminated
Aug 16
Full
Aug 23
Last Quarter
Aug 30
New
Sep 5
First Quarter
Sep 13
Full

Hourly Weather History & Observations

Time (CDT) Temp. Heat Index Dew Point Humidity Pressure Visibility Wind Dir Wind Speed Gust Speed Precip Events Conditions
12:52 AM 75.0 °F - 64.0 °F 69% 29.89 in 10.0 mi NE 10.4 mph 28.8 mph N/A Thunderstorm Overcast
1:06 AM 75.0 °F - 64.9 °F 71% 29.94 in 10.0 mi North 12.7 mph - N/A   Scattered Clouds
1:13 AM 75.9 °F - 64.9 °F 69% 30.00 in 10.0 mi NNW 20.7 mph 28.8 mph N/A Thunderstorm Mostly Cloudy
1:26 AM 73.9 °F - 64.9 °F 73% 29.94 in 10.0 mi ENE 10.4 mph 26.5 mph N/A Thunderstorm Mostly Cloudy
1:52 AM 73.9 °F - 64.9 °F 73% 29.88 in 10.0 mi ESE 6.9 mph - N/A Thunderstorm Partly Cloudy
2:01 AM 75.0 °F - 64.9 °F 71% 29.92 in 10.0 mi East 10.4 mph - N/A   Mostly Cloudy
2:52 AM 72.0 °F - 61.0 °F 68% 29.91 in 10.0 mi East 8.1 mph - N/A   Mostly Cloudy
3:52 AM 70.0 °F - 63.0 °F 78% 29.91 in 10.0 mi ESE 10.4 mph - N/A   Scattered Clouds
4:52 AM 72.0 °F - 62.1 °F 71% 29.93 in 10.0 mi ESE 4.6 mph - N/A   Overcast
5:52 AM 72.0 °F - 63.0 °F 73% 29.91 in 10.0 mi SSE 13.8 mph - N/A   Overcast
7:52 AM 73.0 °F - 66.0 °F 79% 29.92 in 10.0 mi SSE 11.5 mph - N/A   Clear
8:52 AM 73.9 °F - 66.9 °F 79% 29.96 in 10.0 mi SE 9.2 mph - N/A   Mostly Cloudy
9:52 AM 75.9 °F - 66.0 °F 71% 29.94 in 10.0 mi SE 16.1 mph 24.2 mph N/A   Clear
10:52 AM 77.0 °F - 66.0 °F 69% 29.95 in 10.0 mi SSE 18.4 mph 29.9 mph N/A   Partly Cloudy
11:52 AM 82.9 °F 86.5 °F 69.1 °F 63% 29.94 in 10.0 mi South 20.7 mph 27.6 mph N/A   Clear
12:52 PM 80.1 °F 82.9 °F 69.1 °F 69% 29.96 in 10.0 mi SSW 12.7 mph - N/A   Mostly Cloudy
1:12 PM 81.0 °F 84.1 °F 69.1 °F 67% 29.97 in 10.0 mi South 13.8 mph 23.0 mph N/A Thunderstorm Mostly Cloudy
1:27 PM 79.0 °F - 68.0 °F 69% 29.98 in 10.0 mi South 18.4 mph 26.5 mph N/A Thunderstorm Thunderstorm
1:52 PM 75.0 °F - 69.1 °F 82% 29.88 in 10.0 mi SSE 18.4 mph 28.8 mph 0.01 in Rain , Thunderstorm Light Rain
2:06 PM 75.9 °F - 70.0 °F 82% 29.90 in 10.0 mi SE 17.3 mph - 0.00 in   Partly Cloudy
2:52 PM 78.1 °F - 70.0 °F 76% 29.86 in 10.0 mi SSE 15.0 mph 25.3 mph 0.00 in   Clear
3:52 PM 79.0 °F - 70.0 °F 74% 29.86 in 10.0 mi SSE 15.0 mph 24.2 mph N/A   Clear
4:52 PM 81.0 °F 84.4 °F 70.0 °F 69% 29.84 in 10.0 mi SSE 9.2 mph - N/A   Clear
5:52 PM 81.0 °F 84.9 °F 71.1 °F 72% 29.84 in 10.0 mi SSE 6.9 mph - N/A   Clear
6:52 PM 84.0 °F 91.2 °F 73.9 °F 72% 29.82 in 10.0 mi South 5.8 mph - N/A   Clear
7:52 PM 82.0 °F 87.4 °F 73.0 °F 74% 29.81 in 10.0 mi SSE 6.9 mph - N/A   Clear
8:52 PM 78.1 °F - 73.0 °F 84% 29.80 in 10.0 mi SE 5.8 mph - N/A   Clear
9:52 PM 78.1 °F - 73.0 °F 84% 29.81 in 10.0 mi East 6.9 mph - N/A   Clear
10:52 PM 77.0 °F - 72.0 °F 84% 29.81 in 10.0 mi ESE 8.1 mph - N/A   Clear
11:52 PM 77.0 °F - 72.0 °F 84% 29.79 in 10.0 mi SE 9.2 mph - N/A   Clear